OBJECT XM

基本信息
目录编号:
65733
目录名称:
OBJECT XM
国际标识:
1998-067XM
轨道中心:
EARTH
物体状态:
已陨落(2026-01-21)
发射日期:
1998-11-20 UTC
国别:
日本 (JP)
轨道信息
数据来源: 国际轨道数据
星历时间: 2026-01-21T06:10:13+0800
半长轴: 6560.529km
偏心率: 0.0004779
轨道倾角: 51.612°
近地点辐角: 208.510°
升交点赤经: 289.288°
平近点角: 151.566°
近地点: 179.256km
远地点: 185.528km
周期: 88.139分钟
每日圈数: 16.337836
详细信息
发射场:
TTMTR
轨道高度:
LEO
数据来源:
AOE Integration Group
参考系:
TEME
时间系统:
UTC
历元类型:
SGP4
2D轨道图
3D轨道图
轨道高度分析图
轨道倾角分析图
轨道综合分析图
查看轨道综合分析图